Location: Arroyo de San Miguel
(40.9167°N, 4.6667°W)
Time: 14:42:24
(UTC+00:00)

Cosmos 2341 Rocket - Pass Details

Date: 19 May 2025
Orbit: 966 x 1004 km, 82.9° (Epoch: 17 June)

Event Time Altitude Azimuth Distance (km) Brightness Sun altitude
Rises 21:39:42 0° 353° (N) 3,687 8.0 -19.2°
Reaches altitude 10° 21:42:14 10° 355° (N) 2,730 7.2 -19.5°
Maximum altitude 21:48:30 79° 82° (E) 991 3.9 -20.2°
Enters shadow 21:51:18 35° 165° (SSE) 1,512 4.5 -20.5°
